sat.trackr.live / text

‹ back to catalog

STARLINK-11415 [DTC]

NORAD 62592 · 2025-008F

PAYLOAD ACTIVE UNKNOWN

§ Identity

Operator
Country
US
Launch date
2025-01-13
Launch site
AFETR
Launch vehicle
Mass (kg)
RCS (m²)

Purposes: comms

External: N2YO · Heavens-Above · Gunter

§ Orbital elements

Epoch: 2026-09-21T14:40:01.160256Z

Period
91.67 min
Inclination
42.9985°
Eccentricity
0.0000957
Mean motion
15.70853904 rev/d
Perigee alt
355.8 km
Apogee alt
357.1 km
Semi-major
6,734.6 km
B*
4.2390e-4
RAAN
25.5671°
Arg perigee
240.5757°
Mean anomaly
119.5015°
Rev number
9,803

§ Raw data

STARLINK-11415 [DTC]1 62592U 25008F   26264.61112454  .00054331  00000+0  42390-3 0  99992 62592  42.9985  25.5671 0000957 240.5757 119.5015 15.70853904 98034

JSON: /api/v1/satellites/62592 · /tle

For live sub-satellite position, see the globe view (requires WebGL).

§ Visibility from observer

Set your observer location to see the next 7 days of passes ≥ 10°. The values pass through the URL so the page stays shareable.

No JS? Fill the form by hand. The geolocation button needs JavaScript.